Hourly Weather Al-Jadida

Today, 9 March, Tuesday

Time Temperature Precipitation Wind Pressure Humidity
00:00 +12°C° 0.1 mm 5 mps 763 mmHg 81%
01:00 +12°C° 0.1 mm 5 mps 763 mmHg 81%
02:00 +12°C° 0.1 mm 4 mps 762 mmHg 81%
03:00 +11°C° 0 mm 4 mps 762 mmHg 80%
04:00 +11°C° 0 mm 4 mps 762 mmHg 80%
05:00 +10°C° 0 mm 4 mps 762 mmHg 80%
06:00 +11°C° 0 mm 4 mps 762 mmHg 75%
07:00 +13°C° 0 mm 4 mps 763 mmHg 71%
08:00 +14°C° 0 mm 4 mps 763 mmHg 67%
09:00 +14°C° 0 mm 4 mps 763 mmHg 63%
10:00 +15°C° 0 mm 4 mps 763 mmHg 59%
11:00 +15°C° 0 mm 4 mps 763 mmHg 55%
12:00 +15°C° 0 mm 4 mps 763 mmHg 55%
13:00 +15°C° 0 mm 4 mps 763 mmHg 55%
14:00 +15°C° 0 mm 5 mps 762 mmHg 55%
15:00 +15°C° 0 mm 4 mps 762 mmHg 58%
16:00 +14°C° 0 mm 4 mps 762 mmHg 61%
17:00 +14°C° 0 mm 4 mps 762 mmHg 65%
18:00 +13°C° 0 mm 4 mps 763 mmHg 68%
19:00 +12°C° 0 mm 4 mps 764 mmHg 71%
20:00 +11°C° 0 mm 3 mps 764 mmHg 75%
21:00 +10°C° 0 mm 3 mps 765 mmHg 76%
22:00 +10°C° 0 mm 3 mps 765 mmHg 77%
23:00 +10°C° 0 mm 3 mps 765 mmHg 78%

Tomorrow, 10 March, Wednesday

Time Temperature Precipitation Wind Pressure Humidity
00:00 +9°C° 0 mm 3 mps 765 mmHg 79%
01:00 +9°C° 0 mm 3 mps 764 mmHg 80%
02:00 +9°C° 0 mm 3 mps 764 mmHg 81%
03:00 +9°C° 0 mm 3 mps 764 mmHg 81%
04:00 +9°C° 0 mm 3 mps 764 mmHg 81%
05:00 +8°C° 0 mm 3 mps 764 mmHg 81%
06:00 +10°C° 0 mm 3 mps 765 mmHg 76%
07:00 +12°C° 0 mm 3 mps 766 mmHg 72%
08:00 +13°C° 0 mm 3 mps 766 mmHg 67%
09:00 +14°C° 0 mm 4 mps 766 mmHg 64%
10:00 +16°C° 0 mm 5 mps 766 mmHg 60%
11:00 +17°C° 0 mm 5 mps 766 mmHg 57%
12:00 +17°C° 0 mm 6 mps 766 mmHg 58%
13:00 +17°C° 0 mm 6 mps 766 mmHg 58%
14:00 +17°C° 0 mm 7 mps 765 mmHg 59%
15:00 +16°C° 0 mm 7 mps 765 mmHg 63%
16:00 +16°C° 0 mm 7 mps 766 mmHg 67%
17:00 +15°C° 0 mm 7 mps 766 mmHg 70%
18:00 +14°C° 0 mm 7 mps 766 mmHg 75%
19:00 +12°C° 0 mm 7 mps 767 mmHg 80%
20:00 +12°C° 0 mm 7 mps 767 mmHg 84%
21:00 +11°C° 0 mm 6 mps 767 mmHg 85%
22:00 +11°C° 0 mm 6 mps 767 mmHg 86%
23:00 +11°C° 0 mm 6 mps 767 mmHg 87%

Day after tomorrow, 11 March, Thursday

Time Temperature Precipitation Wind Pressure Humidity
00:00 +11°C° 0 mm 6 mps 767 mmHg 88%
01:00 +12°C° 0 mm 5 mps 767 mmHg 89%
02:00 +10°C° 0 mm 5 mps 767 mmHg 90%
03:00 +10°C° 0 mm 5 mps 767 mmHg 90%
04:00 +11°C° 0 mm 4 mps 767 mmHg 90%
05:00 +10°C° 0 mm 4 mps 767 mmHg 91%
06:00 +12°C° 0 mm 4 mps 767 mmHg 87%
07:00 +13°C° 0 mm 5 mps 768 mmHg 84%
08:00 +15°C° 0 mm 5 mps 768 mmHg 81%
09:00 +16°C° 0 mm 5 mps 768 mmHg 75%
10:00 +17°C° 0 mm 5 mps 768 mmHg 69%
11:00 +20°C° 0 mm 5 mps 768 mmHg 63%
12:00 +20°C° 0 mm 6 mps 768 mmHg 63%
13:00 +20°C° 0 mm 6 mps 767 mmHg 63%
14:00 +20°C° 0 mm 6 mps 767 mmHg 64%
15:00 +19°C° 0 mm 6 mps 767 mmHg 68%
16:00 +17°C° 0 mm 6 mps 767 mmHg 72%
17:00 +16°C° 0 mm 6 mps 767 mmHg 76%
18:00 +15°C° 0 mm 6 mps 767 mmHg 79%
19:00 +14°C° 0 mm 6 mps 768 mmHg 83%
20:00 +13°C° 0 mm 6 mps 768 mmHg 87%
21:00 +13°C° 0 mm 5 mps 768 mmHg 87%
22:00 +13°C° 0 mm 5 mps 768 mmHg 87%
23:00 +12°C° 0 mm 5 mps 768 mmHg 87%

12 March, Friday

Time Temperature Precipitation Wind Pressure Humidity
00:00 +12°C° 0 mm 5 mps 767 mmHg 87%
01:00 +12°C° 0 mm 5 mps 767 mmHg 88%
02:00 +12°C° 0 mm 4 mps 767 mmHg 88%
03:00 +11°C° 0 mm 4 mps 767 mmHg 88%
04:00 +11°C° 0 mm 4 mps 767 mmHg 88%
05:00 +11°C° 0 mm 4 mps 767 mmHg 89%
06:00 +13°C° 0 mm 4 mps 767 mmHg 85%
07:00 +14°C° 0 mm 4 mps 767 mmHg 81%
08:00 +15°C° 0 mm 4 mps 768 mmHg 77%
09:00 +17°C° 0 mm 4 mps 768 mmHg 71%
10:00 +18°C° 0 mm 4 mps 768 mmHg 65%
11:00 +19°C° 0 mm 4 mps 768 mmHg 59%
12:00 +19°C° 0 mm 5 mps 767 mmHg 60%
13:00 +19°C° 0 mm 6 mps 766 mmHg 61%
14:00 +19°C° 0 mm 6 mps 766 mmHg 62%
15:00 +19°C° 0 mm 6 mps 766 mmHg 68%
16:00 +17°C° 0 mm 7 mps 766 mmHg 75%
17:00 +16°C° 0 mm 7 mps 765 mmHg 82%
18:00 +15°C° 0 mm 6 mps 766 mmHg 85%
19:00 +14°C° 0 mm 6 mps 766 mmHg 88%
20:00 +14°C° 0 mm 6 mps 766 mmHg 91%
21:00 +13°C° 0 mm 6 mps 766 mmHg 91%
22:00 +13°C° 0 mm 5 mps 766 mmHg 91%
23:00 +13°C° 0 mm 5 mps 766 mmHg 90%

13 March, Saturday

Time Temperature Precipitation Wind Pressure Humidity
00:00 +13°C° 0 mm 5 mps 766 mmHg 91%
01:00 +13°C° 0 mm 5 mps 765 mmHg 91%
02:00 +12°C° 0 mm 5 mps 765 mmHg 91%
03:00 +12°C° 0 mm 5 mps 765 mmHg 92%
04:00 +12°C° 0 mm 5 mps 765 mmHg 92%
05:00 +12°C° 0 mm 5 mps 765 mmHg 93%
06:00 +13°C° 0 mm 4 mps 765 mmHg 90%
07:00 +14°C° 0 mm 4 mps 766 mmHg 87%
08:00 +17°C° 0 mm 4 mps 766 mmHg 83%
09:00 +18°C° 0 mm 4 mps 766 mmHg 79%
10:00 +19°C° 0 mm 5 mps 766 mmHg 75%
11:00 +20°C° 0 mm 5 mps 766 mmHg 70%
12:00 +20°C° 0 mm 6 mps 765 mmHg 72%
13:00 +18°C° 0 mm 7 mps 765 mmHg 75%
14:00 +18°C° 0 mm 8 mps 764 mmHg 77%
15:00 +17°C° 0 mm 7 mps 765 mmHg 80%
16:00 +16°C° 0 mm 7 mps 765 mmHg 82%
17:00 +15°C° 0 mm 7 mps 765 mmHg 84%
18:00 +15°C° 0 mm 7 mps 765 mmHg 84%
19:00 +15°C° 0 mm 7 mps 765 mmHg 83%
20:00 +15°C° 0 mm 6 mps 766 mmHg 83%
21:00 +15°C° 0 mm 6 mps 766 mmHg 82%
22:00 +14°C° 0 mm 6 mps 766 mmHg 82%
23:00 +14°C° 0 mm 5 mps 766 mmHg 82%

14 March, Sunday

Time Temperature Precipitation Wind Pressure Humidity
00:00 +14°C° 0 mm 5 mps 766 mmHg 82%
01:00 +14°C° 0 mm 5 mps 765 mmHg 82%
02:00 +14°C° 0 mm 5 mps 765 mmHg 82%
03:00 +14°C° 0 mm 5 mps 765 mmHg 84%
04:00 +13°C° 0 mm 5 mps 765 mmHg 86%
05:00 +13°C° 0 mm 5 mps 764 mmHg 88%
06:00 +14°C° 0 mm 6 mps 765 mmHg 85%
07:00 +15°C° 0 mm 6 mps 765 mmHg 82%
08:00 +15°C° 0 mm 7 mps 765 mmHg 79%
09:00 +16°C° 0 mm 7 mps 765 mmHg 75%
10:00 +18°C° 0 mm 7 mps 765 mmHg 70%
11:00 +20°C° 0 mm 7 mps 765 mmHg 66%
12:00 +20°C° 0 mm 8 mps 764 mmHg 67%
13:00 +18°C° 0 mm 8 mps 764 mmHg 68%
14:00 +18°C° 0 mm 8 mps 763 mmHg 68%
15:00 +18°C° 0 mm 8 mps 763 mmHg 72%
16:00 +17°C° 0 mm 7 mps 763 mmHg 75%
17:00 +16°C° 0 mm 7 mps 763 mmHg 79%
18:00 +15°C° 0 mm 7 mps 764 mmHg 83%
19:00 +14°C° 0 mm 6 mps 764 mmHg 86%
20:00 +14°C° 0 mm 6 mps 765 mmHg 90%
21:00 +14°C° 0 mm 6 mps 764 mmHg 90%
22:00 +13°C° 0 mm 6 mps 764 mmHg 91%
23:00 +13°C° 0 mm 6 mps 764 mmHg 91%
Show more